Terminal Aerodrome Forecast
Issued by NWS Pittsburgh, PA

Current Version | Previous Version | Graphics & Text | Print | Product List | Glossary On
Versions: 1 2 3 4 5 6 7 8 9 10 11 12 13 14 15 16 17 18 19 20 21 22 23 24 25 26 27
295
FTUS41 KPBZ 061134
TAFPIT
TAF
KPIT 061134Z 0612/0718 09010KT P6SM BKN100
     FM061500 11012G18KT P6SM -RA OVC050
     FM061800 13012G18KT 3SM -RA OVC015
     FM070000 12005KT P6SM VCSH OVC008
     FM070600 27008KT P6SM BKN015=

USA.gov is the U.S. government's official web portal to all federal, state and local government web resources and services.